Regional Weather Roundup
Issued by NWS

Home | Current Version | Previous Version | Text Only | Print | Product List | Glossary On
Versions: 1 2 3 4 5 6 7 8 9 10 11 12 13 14 15 16 17 18 19 20 21 22 23 24 25 26 27 28 29 30 31 32 33 34 35 36 37 38 39 40 41 42 43 44 45 46 47 48 49 50
000
ASUS45 KPSR 020210
RWRAZ

ARIZONA REGIONAL HOURLY WEATHER ROUNDUP
NATIONAL WEATHER SERVICE PHOENIX AZ
700 PM MST FRI AUG 01 2014

NOTE: FAIR INDICATES FEW OR NO CLOUDS BELOW 12,000 FEET WITH NO
SIGNIFICANT WEATHER AND/OR OBSTRUCTIONS TO VISIBILITY.

AZZ001>003-036-020300-
NORTHWEST ARIZONA

CITY           SKY/WX    TMP DP  RH WIND       PRES   REMARKS
BULLHEAD CITY  PTCLDY   106  54  17 S12       29.73F HX 104
KINGMAN        PTCLDY    94  49  21 SW12      29.99R
$$

AZZ004>008-015-016-018-020300-
NORTH CENTRAL ARIZONA

CITY           SKY/WX    TMP DP  RH WIND       PRES   REMARKS
GRAND CANYON   MOCLDY    74  50  42 S7        30.26R
WILLIAMS       CLOUDY    66  46  48 S8        30.34R
PRESCOTT       TSTM      69  58  67 S10       30.17F
FLAGSTAFF      CLOUDY    57  53  86 CALM      30.28F
PAYSON         CLOUDY    72  55  56 N6G17     30.16F
PAGE           MOCLDY    89  43  20 NW10      30.04R
$$

AZZ009>014-017-020300-
NORTHEAST ARIZONA

CITY           SKY/WX    TMP DP  RH WIND       PRES   REMARKS
WINSLOW        PTCLDY    85  47  26 W16       30.08S
SAINT JOHNS    LGT RAIN  69  59  70 S17       30.17S
WINDOW ROCK    PTCLDY    76  49  38 VRB5      30.23R
SHOW LOW       CLOUDY    63  55  77 SE9       30.27R
$$

AZZ023-020300-
GREATER PHOENIX AREA

CITY           SKY/WX    TMP DP  RH WIND       PRES   REMARKS
PHOENIX        MOCLDY    97  57  26 S5        29.82S
BUCKEYE          N/A     91  66  43 SE5       29.83R
GLENDALE       MOCLDY    97  57  26 SE9       29.83S
LUKE AFB       NOT AVBL
DEER VALLEY    PTCLDY    94  59  31 S6        29.84S
SCOTTSDALE     PTCLDY    94  59  31 S5        29.86S
MESA-FALCON    MOCLDY    95  57  28 SW6       29.84S
MESA-GATEWAY   MOCLDY    95  61  31 SW6       29.89R
CHANDLER       MOCLDY    95  57  28 S10       29.85R
$$

AZZ027-028-020300-
SOUTHWEST MARICOPA COUNTY AND PINAL COUNTY

CITY           SKY/WX    TMP DP  RH WIND       PRES   REMARKS
CASA GRANDE    CLOUDY    91  57  31 CALM      29.88R
GILA BEND      MOCLDY    97  55  24 E2        29.83R
$$

AZZ503-504-507>509-020300-
SOUTHEAST ARIZONA

CITY           SKY/WX    TMP DP  RH WIND       PRES   REMARKS
TUCSON         MOCLDY    89  62  40 NW9       29.97R
DAVIS-MONTHAN  MOCLDY    88  63  42 NW15      29.96R
RYAN FIELD       N/A     91  57  31 W12       29.96R
NOGALES        CLOUDY    81  56  42 N8G18     30.06R
SIERRA VISTA   MOCLDY    79  59  50 SW3       30.12R
DOUGLAS        PTCLDY    80  61  52 SE6       30.09R
SAFFORD        CLOUDY    82  56  40 E16       30.01R
$$

AZZ020-021-025-026-031-020300-
SOUTHWEST ARIZONA

CITY           SKY/WX    TMP DP  RH WIND       PRES   REMARKS
YUMA           MOCLDY   104  60  23 S7        29.74R HX 105
$$

CAZ031-033-041-043-047-048-061-020300-
SOUTHERN CALIFORNIA

CITY           SKY/WX    TMP DP  RH WIND       PRES   REMARKS
DOWNTOWN L.A.  CLEAR     76  63  64 W7        29.85F
L.A. AIRPORT   PTCLDY    70  63  78 W10       29.87F
SAN DIEGO      MOCLDY    74  63  68 NW8       29.88S
BURBANK        CLEAR     83  62  49 S5        29.86S
ONTARIO        PTCLDY    88  62  41 W13       29.84F
RIVERSIDE      CLEAR     87  61  41 W9        29.85S
PALM SPRINGS   MOCLDY   102  69  34 SE5       29.76F HX 109
EL CENTRO NAS  CLEAR    107  56  18 W3        29.69F HX 106
IMPERIAL       CLEAR    107  57  19 E5        29.69S HX 107
BLYTHE           N/A    N/A N/A N/A MISG      29.73S
NEEDLES        PTCLDY   107  53  16 W12       29.75F HX 105
$$

NVZ020-UTZ003-020300-
SOUTHERN NEVADA-UTAH

CITY           SKY/WX    TMP DP  RH WIND       PRES   REMARKS
LAS VEGAS      CLOUDY   101  50  18 S17       29.80S
SALT LAKE CITY PTCLDY    88  42  20 NW7       30.06S
$$

NMZ009-TXZ055-020300-
NEW MEXICO-WEST TEXAS

CITY           SKY/WX    TMP DP  RH WIND       PRES   REMARKS
ALBUQUERQUE    MOCLDY    77  55  46 E12       30.19R
EL PASO        MOCLDY    74  64  71 E8        30.11R
$$


........................KEY........................
SKY/WX - SKY CONDITION/WEATHER
TMP    - TEMPERATURE IN FAHRENHEIT
DP     - DEW POINT IN FAHRENHEIT
RH     - RELATIVE HUMIDITY IN PERCENT
WIND   - DIRECTION AND SPEED IN MILES PER HOUR (MPH)
VRB    - VARIABLE WIND DIRECTION
PRES   - MEAN SEA LEVEL PRESSURE IN INCHES OF MERCURY
         F - FALLING PRESSURE   R - RISING PRESSURE
         S - STEADY PRESSURE
VSB    - VISIBILITY IN MILES
HX     - HEAT INDEX IN FAHRENHEIT
WCI    - WIND CHILL INDEX IN FAHRENHEIT
TC     - TEMPERATURE IN CELSIUS WHICH IS ALSO KNOWN AS
         TEMPERATURE IN CENTIGRADE
AFB    - AIR FORCE BASE
         LUKE AFB IS LUKE AIR FORCE BASE
         DAVIS-MONTHAN IS DAVIS-MONTHAN AIR FORCE BASE
NAS    - NAVAL AIR STATION
         EL CENTRO NAS IS EL CENTRO NAVAL AIR STATION
N/A    - NOT AVAILABLE



USA.gov is the U.S. government's official web portal to all federal, state and local government web resources and services.